Voltar ao catálogo

FENGYUN 1C DEB

AtivoPO
NORAD 30493·DEBRIS·🇨🇳 China

Lançado May 10, 1999 de Taiyuan Satellite Launch Center

Loading…

Próximas Passagens (próximas 24 horas)

TLE

AtualizadoSource: Space-Track

Época: Sep 14, 2026, 11:09 UTC

1 30493U 99025AHF 26257.46480598  .00001386  00000-0  93525-3 0  9995
2 30493  98.5834  73.1289 0181885 172.6683 216.4364 13.94269485989364

Acompanhe FENGYUN 1C DEB em tempo real com AllMySat

Download on the App Store